Temp
67 64 61 57 55 54 53 54 53 55 55 56 56 55 54 53 53 53 52 51 49 49 49 48 47 47 45 45 45 44 42 41 36 39 43 45 43 42 45 45 46 45 44
63 60 56 55 54 54 54 54 55 55 57 56 56 55 53 52 52 51 50 50 48 47 47 46 45 47 44 44 44 42 41 42 38 35 39 39 40 43 43 42 44 46 44
60 57 54 54 53 53 53 54 55 55 54 54 54 52 51 50 50 50 49 49 48 48 47 45 44 44 42 42 42 41 41 42 40 37 36 40 40 41 40 41 41 42 45
57 55 53 53 52 53 53 55 54 54 52 52 52 50 49 49 48 48 48 47 47 48 47 46 45 43 42 41 40 39 40 38 38 36 35 34 36 38 38 36 36 39 38
54 53 51 52 52 54 53 53 53 52 51 50 49 48 48 47 48 44 46 46 46 46 46 46 45 44 43 42 40 38 38 36 34 32 32 33 32 34 34 36 34 35 35
51 49 50 51 52 51 51 51 50 49 48 48 47 47 46 47 41 42 43 43 44 44 43 44 44 43 43 43 42 42 41 36 32 31 31 31 32 34 35 33 31 29 27
47 48 49 50 50 50 50 49 47 47 47 46 46 46 45 45 41 41 42 42 42 43 42 42 42 43 42 41 41 42 41 41 40 36 33 33 33 34 32 29 30 30 29
46 47 49 50 49 49 48 46 46 46 46 46 45 45 44 45 40 40 41 41 42 42 43 42 41 40 41 40 39 35 35 36 38 40 37 36 36 36 33 33 32 31 32
46 48 50 49 48 47 45 45 45 45 45 45 44 43 43 43 40 39 39 40 41 40 42 42 41 40 42 42 38 33 34 36 41 41 40 40 40 41 40 35 28 27 25
48 49 50 49 47 45 44 44 45 45 43 43 43 44 43 41 43 40 39 39 37 39 40 40 42 41 42 41 37 35 31 33 33 33 35 36 38 37 39 36 32 26 25
49 49 47 46 44 44 44 44 44 43 42 43 42 44 44 43 41 40 40 37 37 37 36 37 39 40 40 40 39 35 33 35 34 33 33 33 33 33 34 34 33 28 25
43 42 41 42 44 45 43 43 42 42 42 42 42 41 43 43 42 41 39 39 39 37 36 37 37 39 39 38 37 36 37 36 32 31 30 29 29 29 30 31 31 30 29
40 40 41 43 44 44 43 42 42 42 41 40 38 38 39 40 41 41 41 40 40 37 37 38 38 38 37 36 36 36 36 32 31 28 27 27 28 29 29 28 30 30 30
41 42 42 42 42 42 40 41 41 40 39 37 37 36 36 37 38 38 37 37 38 37 36 35 36 36 36 35 34 34 32 32 30 28 26 27 28 27 27 28 26 27 25
42 41 41 40 41 40 40 41 41 40 37 35 35 34 33 32 35 36 36 35 35 36 35 32 32 32 30 30 30 30 30 30 28 27 26 25 25 26 25 27 26 26 24
40 40 40 40 41 40 40 40 36 36 36 36 35 34 34 36 36 35 35 36 36 36 31 29 28 28 27 27 27 27 27 27 27 26 25 25 24 23 24 26 26 24 24
41 39 38 41 40 39 39 36 35 38 37 36 36 36 35 34 34 34 35 35 34 33 28 27 26 26 26 26 26 25 24 26 26 25 24 23 24 24 24 23 24 24 24
39 40 39 39 37 37 36 35 35 33 32 34 37 36 36 35 34 35 34 32 29 30 27 26 25 26 26 25 25 24 24 25 24 24 24 24 24 23 23 23 24 24 24
39 38 38 37 35 34 35 34 34 33 32 32 33 34 35 34 34 34 33 28 26 25 26 25 26 25 25 25 24 24 24 23 24 24 23 23 24 24 23 24 25 28 29
36 35 36 36 35 34 34 33 32 31 31 31 30 30 31 30 27 28 28 27 26 26 26 25 25 25 25 24 24 24 23 23 23 23 23 24 24 24 24 24 25 25 26
36 35 33 34 33 32 32 31 31 30 29 29 29 31 32 27 26 26 26 26 26 25 25 25 25 24 24 24 24 23 23 23 23 23 23 24 24 24 25 26 27 28 28
35 34 33 32 31 31 31 30 30 29 28 28 28 29 30 28 27 26 26 26 26 26 26 25 24 24 24 23 23 23 22 22 23 23 24 24 24 25 26 26 28 29 30
34 32 32 31 30 30 30 30 29 28 27 27 27 27 27 26 26 25 25 25 26 25 26 25 24 23 25 25 25 24 23 23 24 25 24 24 25 26 26 28 30 29 29
32 31 30 30 29 28 28 27 27 27 26 26 25 26 25 25 25 25 25 25 25 25 25 25 24 24 24 24 25 25 25 26 26 27 28 28 31 31 31 30 30 29 29
31 30 29 28 27 27 26 26 25 25 25 25 24 24 25 24 24 24 25 25 24 24 25 25 25 24 24 25 25 25 27 31 33 33 33 32 31 31 31 30 30 30 30
28 28 28 27 26 26 25 24 23 23 22 23 23 23 23 23 23 23 24 24 24 23 23 24 25 25 25 25 27 29 33 34 35 36 33 31 30 31 32 31 30 29 28
MSLP
1004.71 1005.86 1007.42 1009.19 1010.42 1010.88 1011.82 1012.88 1013.71 1014.45 1015.26 1015.88 1016.34 1016.88 1017.25 1017.58 1017.91 1018.12 1018.28 1018.49 1018.74 1018.87 1018.99 1018.96 1018.93 1018.97 1018.87 1018.72 1018.54 1018.32 1018.08 1017.80 1016.72 1015.97 1015.88 1015.46 1015.14 1014.75 1014.10 1013.60 1012.95 1012.50 1011.82
1005.55 1006.91 1008.33 1009.65 1010.39 1011.03 1012.09 1013.10 1013.84 1014.81 1015.40 1016.16 1016.61 1017.05 1017.45 1017.80 1018.08 1018.26 1018.36 1018.52 1018.73 1018.81 1018.81 1018.81 1018.80 1018.73 1018.62 1018.47 1018.20 1017.94 1017.73 1017.45 1016.84 1015.43 1015.43 1015.11 1014.71 1014.14 1013.56 1012.88 1012.39 1011.67 1011.10
1006.36 1007.72 1008.98 1009.81 1010.52 1011.49 1012.53 1013.43 1014.28 1014.99 1015.76 1016.48 1016.90 1017.32 1017.69 1018.11 1018.35 1018.49 1018.55 1018.68 1018.74 1018.72 1018.68 1018.68 1018.66 1018.58 1018.35 1018.10 1017.97 1017.72 1017.41 1016.91 1016.47 1015.59 1014.55 1014.51 1014.13 1013.70 1012.98 1012.47 1011.73 1010.81 1010.21
1007.16 1008.34 1009.25 1010.02 1010.90 1011.87 1012.96 1013.88 1014.66 1015.47 1016.05 1016.65 1017.26 1017.74 1018.06 1018.37 1018.59 1018.72 1018.77 1018.78 1018.63 1018.50 1018.42 1018.37 1018.30 1018.24 1018.06 1017.90 1017.88 1017.65 1017.15 1016.72 1016.24 1015.65 1014.88 1014.12 1013.73 1013.18 1012.69 1011.75 1010.77 1010.58 1009.81
1007.95 1008.94 1009.72 1010.50 1011.58 1012.56 1013.57 1014.50 1015.14 1015.79 1016.44 1017.00 1017.61 1018.06 1018.34 1018.60 1018.72 1019.09 1019.00 1018.75 1018.49 1018.23 1018.10 1017.98 1017.87 1017.79 1017.84 1017.71 1017.48 1017.23 1016.95 1016.50 1016.12 1015.47 1014.67 1013.86 1013.21 1012.40 1011.93 1011.31 1010.67 1010.06 1009.50
1008.61 1009.60 1010.49 1011.44 1012.38 1013.36 1014.12 1014.94 1015.67 1016.38 1016.93 1017.34 1017.78 1018.16 1018.44 1018.74 1019.20 1019.29 1019.22 1018.88 1018.50 1018.12 1017.79 1017.66 1017.51 1017.35 1017.15 1017.07 1016.98 1016.72 1016.48 1015.90 1015.58 1015.03 1014.21 1013.40 1012.61 1012.00 1011.56 1011.11 1010.69 1009.88 1008.33
1009.45 1010.44 1011.34 1012.33 1013.08 1014.04 1014.69 1015.44 1016.16 1016.67 1017.13 1017.53 1017.95 1018.30 1018.54 1018.82 1019.23 1019.31 1019.22 1018.95 1018.49 1017.97 1017.67 1017.41 1017.28 1017.08 1016.96 1016.74 1016.50 1016.13 1015.84 1015.57 1014.95 1014.24 1013.36 1012.82 1012.02 1011.70 1011.51 1010.74 1010.06 1009.37 1008.50
1010.43 1011.18 1012.10 1012.94 1013.66 1014.59 1015.24 1016.05 1016.66 1017.00 1017.30 1017.66 1018.07 1018.40 1018.62 1018.71 1019.14 1019.30 1019.12 1018.70 1018.10 1017.72 1017.42 1017.25 1016.98 1016.66 1016.43 1016.16 1015.84 1015.63 1015.31 1014.85 1014.11 1013.40 1012.76 1012.11 1011.68 1011.17 1010.90 1010.21 1009.47 1008.69 1007.67
1011.13 1012.00 1012.76 1013.52 1014.19 1015.11 1015.86 1016.51 1016.95 1017.24 1017.58 1017.86 1018.28 1018.45 1018.55 1018.66 1018.99 1019.10 1018.94 1018.45 1017.85 1017.45 1017.03 1016.74 1016.49 1016.21 1016.00 1015.72 1015.37 1015.09 1014.55 1013.83 1013.29 1012.61 1012.25 1011.74 1010.85 1010.00 1009.69 1009.35 1008.94 1008.41 1007.00
1011.88 1012.77 1013.60 1014.07 1014.82 1015.68 1016.35 1016.89 1017.29 1017.55 1017.87 1018.17 1018.28 1018.38 1018.46 1018.72 1018.64 1018.76 1018.74 1018.32 1017.77 1017.25 1016.93 1016.57 1016.20 1015.89 1015.54 1015.34 1014.92 1014.50 1013.76 1013.29 1012.77 1012.24 1011.58 1010.94 1010.30 1009.82 1009.27 1009.06 1008.65 1008.04 1007.18
1012.95 1013.60 1014.31 1015.04 1015.65 1016.25 1016.83 1017.22 1017.53 1017.84 1018.07 1018.13 1018.23 1018.13 1018.17 1018.28 1018.47 1018.58 1018.56 1018.32 1017.78 1017.30 1016.83 1016.30 1016.01 1015.75 1015.38 1014.87 1014.50 1014.14 1013.62 1012.92 1012.38 1011.89 1011.18 1010.54 1010.09 1009.62 1009.10 1008.69 1008.44 1008.04 1007.05
1013.99 1014.61 1015.33 1015.92 1016.34 1016.80 1017.19 1017.55 1017.87 1018.02 1018.11 1018.09 1018.07 1018.09 1018.03 1018.09 1018.18 1018.21 1018.25 1018.07 1017.66 1017.13 1016.59 1016.15 1015.86 1015.41 1014.85 1014.44 1014.19 1013.82 1013.24 1012.63 1012.21 1011.60 1011.12 1010.52 1010.00 1009.34 1008.76 1008.27 1007.79 1007.27 1006.62
1014.87 1015.54 1016.14 1016.52 1016.83 1017.15 1017.43 1017.76 1017.92 1018.15 1018.21 1018.22 1018.29 1018.25 1018.11 1018.07 1018.02 1017.94 1017.86 1017.72 1017.40 1016.89 1016.42 1015.91 1015.35 1014.85 1014.46 1014.15 1013.84 1013.36 1012.79 1012.35 1011.84 1011.42 1010.88 1010.18 1009.66 1008.95 1008.28 1007.56 1006.75 1006.05 1005.24
1015.51 1016.15 1016.57 1016.91 1017.28 1017.63 1017.89 1018.06 1018.18 1018.35 1018.49 1018.56 1018.47 1018.41 1018.34 1018.17 1018.01 1017.95 1017.98 1017.65 1017.24 1016.73 1016.24 1015.64 1015.11 1014.63 1014.17 1013.81 1013.41 1013.02 1012.61 1012.14 1011.63 1011.16 1010.63 1009.96 1009.28 1008.59 1007.77 1007.01 1006.17 1005.23 1004.28
1015.99 1016.54 1017.03 1017.38 1017.60 1017.90 1018.25 1018.42 1018.46 1018.60 1019.04 1019.07 1018.97 1018.94 1018.69 1018.50 1018.38 1018.31 1017.93 1017.45 1016.93 1016.39 1015.86 1015.57 1014.96 1014.37 1014.07 1013.63 1013.27 1012.95 1012.46 1012.00 1011.54 1011.02 1010.39 1009.68 1008.92 1008.14 1007.14 1006.41 1005.60 1004.57 1003.72
1016.49 1017.04 1017.42 1017.78 1018.09 1018.33 1018.42 1018.37 1018.86 1018.99 1019.09 1019.18 1019.27 1019.32 1019.08 1018.75 1018.46 1018.24 1017.82 1017.17 1016.65 1016.16 1015.89 1015.43 1014.93 1014.66 1014.24 1013.82 1013.44 1012.94 1012.50 1011.95 1011.40 1010.82 1010.10 1009.36 1008.51 1007.68 1006.68 1005.63 1004.96 1004.15 1003.01
1017.00 1017.60 1018.01 1018.10 1018.32 1018.48 1018.57 1018.70 1018.71 1018.66 1018.85 1019.00 1019.12 1019.08 1019.00 1018.81 1018.42 1017.97 1017.28 1016.84 1016.54 1016.10 1015.93 1015.54 1015.22 1014.80 1014.39 1013.95 1013.51 1012.99 1012.25 1011.63 1011.10 1010.41 1009.68 1008.87 1008.04 1007.10 1006.24 1005.25 1004.27 1003.39 1002.25
1017.75 1018.02 1018.26 1018.53 1018.72 1018.81 1018.95 1019.02 1019.07 1018.99 1018.84 1018.73 1018.73 1018.77 1018.63 1018.49 1018.18 1017.62 1017.13 1016.85 1016.48 1016.14 1016.03 1015.55 1015.25 1014.81 1014.38 1013.94 1013.41 1012.82 1012.05 1011.32 1010.64 1009.96 1009.13 1008.28 1007.47 1006.68 1005.61 1004.65 1003.68 1002.75 1001.62
1018.17 1018.49 1018.68 1018.90 1019.12 1019.33 1019.36 1019.37 1019.31 1019.19 1019.04 1018.85 1018.63 1018.45 1018.39 1018.23 1017.85 1017.40 1017.21 1017.03 1016.66 1016.28 1015.98 1015.51 1015.21 1014.77 1014.27 1013.76 1013.18 1012.54 1011.85 1010.96 1010.12 1009.36 1008.57 1007.73 1006.82 1006.06 1004.97 1004.03 1003.08 1002.00 1001.00
1018.79 1019.02 1019.06 1019.22 1019.45 1019.55 1019.61 1019.57 1019.46 1019.34 1019.18 1018.97 1018.76 1018.61 1018.49 1018.33 1017.92 1017.54 1017.25 1016.93 1016.66 1016.30 1015.91 1015.48 1015.03 1014.57 1014.06 1013.47 1012.80 1012.12 1011.31 1010.43 1009.55 1008.80 1007.94 1007.08 1006.20 1005.41 1004.42 1003.35 1002.40 1001.42 1000.36
1018.86 1019.30 1019.62 1019.62 1019.77 1019.88 1019.79 1019.63 1019.59 1019.49 1019.31 1019.09 1018.89 1018.72 1018.60 1018.39 1018.00 1017.62 1017.26 1017.01 1016.64 1016.32 1015.85 1015.34 1014.82 1014.29 1013.68 1013.06 1012.40 1011.71 1010.88 1009.91 1009.07 1008.27 1007.38 1006.45 1005.58 1004.67 1003.71 1002.73 1001.77 1000.75 999.82
1019.34 1019.60 1019.82 1019.98 1020.07 1020.03 1019.98 1019.96 1019.83 1019.70 1019.53 1019.28 1018.99 1018.73 1018.48 1018.28 1017.99 1017.72 1017.33 1017.05 1016.71 1016.30 1015.78 1015.21 1014.56 1013.92 1013.28 1012.62 1011.93 1011.18 1010.32 1009.38 1008.41 1007.61 1006.71 1005.77 1004.88 1003.95 1003.00 1002.05 1001.03 1000.06 999.25
1019.76 1019.92 1020.08 1020.19 1020.24 1020.15 1020.00 1019.94 1019.85 1019.73 1019.55 1019.36 1019.12 1018.88 1018.53 1018.28 1017.99 1017.70 1017.42 1017.02 1016.56 1016.01 1015.42 1014.87 1014.18 1013.40 1012.70 1012.07 1011.36 1010.68 1009.82 1008.71 1007.81 1006.94 1005.98 1004.99 1004.08 1003.14 1002.26 1001.32 1000.37 999.78 999.19
1020.14 1020.29 1020.39 1020.36 1020.32 1020.30 1020.16 1020.09 1019.98 1019.86 1019.73 1019.49 1019.21 1018.92 1018.62 1018.40 1018.07 1017.68 1017.33 1016.86 1016.32 1015.69 1015.04 1014.37 1013.67 1012.96 1012.18 1011.44 1010.67 1009.80 1008.91 1007.94 1007.10 1005.94 1004.81 1003.95 1003.02 1002.38 1001.64 1000.97 1000.37 999.88 999.21
1020.60 1020.67 1020.67 1020.64 1020.64 1020.54 1020.37 1020.22 1020.09 1019.89 1019.67 1019.45 1019.19 1018.96 1018.65 1018.36 1018.04 1017.60 1017.11 1016.60 1016.02 1015.32 1014.52 1013.85 1013.09 1012.36 1011.60 1010.86 1010.02 1009.01 1008.03 1007.01 1005.91 1005.03 1004.33 1003.61 1002.91 1002.22 1001.59 1001.06 1000.46 999.86 999.24
1021.03 1020.99 1020.89 1020.81 1020.71 1020.63 1020.55 1020.43 1020.26 1020.06 1019.82 1019.53 1019.23 1018.89 1018.64 1018.34 1017.95 1017.46 1016.92 1016.35 1015.72 1015.02 1014.26 1013.37 1012.54 1011.85 1011.04 1010.27 1009.29 1008.40 1007.33 1006.23 1005.23 1004.60 1004.07 1003.58 1002.97 1002.25 1001.58 1001.01 1000.46 999.97 999.46
Wind_Speed
15 15 16 15 15 15 14 13 12 12 10 11 10 9 7 6 4 2 1 1 3 5 5 6 7 7 6 6 6 7 7 8 12 10 10 10 13 15 13 13 13 13 14
15 16 16 16 16 16 14 13 12 11 11 10 9 8 6 5 3 1 1 2 4 6 6 7 8 7 8 8 7 9 8 10 11 17 11 10 13 13 15 14 12 11 15
16 17 17 16 16 15 15 12 11 11 11 9 8 7 6 4 2 1 3 5 6 7 7 8 8 9 9 8 8 9 9 9 10 12 13 10 11 11 13 11 14 13 10
17 17 17 16 16 14 13 13 12 11 10 9 7 6 4 3 1 2 4 6 7 7 7 7 9 9 10 10 10 11 10 11 11 11 13 13 11 10 10 13 10 10 12
17 16 16 15 15 14 13 12 11 10 9 8 7 5 3 2 2 5 6 7 8 9 8 9 8 9 14 14 9 10 12 10 10 12 12 12 10 12 12 10 12 11 14
17 16 15 15 14 13 13 12 11 10 8 7 5 4 2 1 4 5 7 8 9 9 8 9 9 13 12 16 19 20 18 13 14 11 12 13 16 13 11 11 13 14 12
17 15 15 14 14 12 12 11 10 9 7 6 4 2 1 1 2 6 8 8 9 9 9 9 9 9 13 10 15 21 19 25 24 18 16 13 15 14 13 15 15 13 14
16 15 13 13 13 12 11 10 9 7 6 4 3 1 2 1 1 6 10 9 8 9 9 10 10 11 10 14 12 12 12 14 15 12 13 13 13 14 15 12 15 16 14
14 13 12 12 13 12 11 9 7 6 4 3 1 1 3 4 3 7 10 9 8 9 9 9 11 11 16 19 14 13 15 13 16 22 23 27 29 28 21 11 11 11 14
13 13 13 12 12 11 9 7 5 5 3 1 1 3 2 5 4 7 10 8 9 8 9 11 16 15 19 22 15 13 15 14 13 14 14 16 16 14 21 12 10 10 12
13 12 12 10 10 9 8 6 5 4 1 1 2 4 4 3 6 7 11 9 7 8 8 8 8 20 22 25 24 13 14 16 16 13 12 10 10 11 10 9 11 10 11
12 12 11 9 7 7 7 5 4 1 1 3 3 4 4 4 6 8 10 12 14 9 10 8 10 22 25 24 19 20 21 20 9 9 9 10 10 10 10 11 15 13 12
12 11 9 9 7 5 5 4 2 1 2 3 3 4 5 4 5 10 11 15 16 12 9 15 25 24 22 15 18 20 17 7 8 9 10 10 9 10 13 13 13 14 14
11 10 8 7 7 5 3 2 1 2 3 3 4 5 5 6 6 5 7 8 14 11 14 12 16 19 16 14 12 10 7 7 9 9 10 10 10 10 11 10 10 11 11
10 8 7 5 5 4 2 3 3 3 3 4 5 6 6 6 7 13 13 10 9 12 17 9 9 7 8 7 7 8 8 8 9 9 9 10 11 10 11 10 10 10 11
8 5 4 4 3 2 1 1 5 2 2 5 7 6 7 12 14 17 18 20 20 22 9 8 7 7 8 8 9 9 9 12 9 9 10 10 10 10 11 11 10 10 11
7 6 4 3 2 2 2 3 4 1 8 8 6 7 11 11 15 17 18 19 19 13 6 6 7 7 8 8 8 9 11 10 11 9 9 10 10 10 14 11 11 10 10
7 7 4 3 3 3 3 3 4 5 6 5 5 8 10 14 16 18 15 14 7 7 6 7 8 8 8 9 9 10 10 10 10 10 10 10 10 10 11 11 10 11 11
5 4 4 3 3 3 3 3 4 5 5 6 5 7 10 15 18 15 13 6 6 7 7 7 7 8 9 9 9 10 10 11 11 10 10 10 10 9 11 11 11 20 19
6 7 5 2 1 2 3 4 4 5 6 5 6 6 6 10 8 7 6 6 6 7 7 8 8 8 9 9 10 9 10 11 11 10 10 10 10 9 11 12 11 11 11
4 4 3 2 3 3 3 4 5 5 5 6 6 7 14 8 7 6 7 7 7 7 8 8 9 9 9 9 9 9 10 11 11 10 10 10 11 11 11 11 11 11 11
3 3 2 2 2 3 4 4 5 5 6 6 7 7 14 6 6 7 7 7 8 8 8 9 9 9 9 9 10 10 11 12 12 11 11 11 11 11 11 11 11 10 8
3 2 1 2 3 5 4 4 5 6 6 7 7 7 7 6 7 7 7 8 8 8 8 8 9 10 9 9 9 10 11 12 12 11 12 12 12 12 10 9 9 8 9
2 2 2 3 3 4 5 5 6 7 7 7 7 7 6 7 7 8 8 8 9 9 9 9 9 12 12 11 10 11 11 11 10 12 16 11 9 10 8 8 7 11 8
2 2 3 4 4 5 6 6 6 6 7 7 7 7 7 7 8 8 8 9 9 10 11 11 9 12 14 16 17 19 18 26 20 15 9 9 10 12 8 7 10 8 9
2 3 3 4 4 5 5 6 6 6 6 6 6 6 7 8 8 8 9 10 9 10 13 10 12 16 17 13 15 20 27 28 16 18 9 7 8 8 8 7 9 7 8
Wind_Direction
146 133 134 137 136 125 120 121 121 132 133 140 137 137 137 132 129 145 110 303 276 283 282 284 293 293 286 289 291 289 285 285 286 290 293 303 306 299 293 295 293 295 286
130 130 133 136 131 120 122 119 131 131 133 133 134 130 124 120 118 95 308 281 284 288 292 293 292 294 297 293 289 290 290 291 289 294 298 298 289 291 292 295 290 291 293
130 132 134 129 123 117 120 125 129 129 125 127 124 125 123 113 104 350 316 300 289 289 292 291 297 297 295 296 296 295 292 291 293 295 301 300 302 297 296 294 293 288 290
130 133 127 121 120 121 123 127 124 127 125 122 117 113 107 107 49 324 303 291 290 293 291 287 290 290 292 302 308 302 301 303 301 302 299 299 295 301 295 295 299 305 296
129 124 117 117 115 120 120 120 121 119 116 114 117 113 109 63 29 342 315 309 302 299 297 294 291 299 298 288 291 291 298 299 299 291 289 295 300 306 300 311 300 306 299
118 113 112 115 118 118 121 119 116 116 117 119 113 105 91 341 56 317 311 309 304 301 301 303 304 302 298 304 296 298 294 298 293 292 294 296 296 299 312 309 307 299 301
110 112 116 120 118 119 117 116 118 117 121 117 113 98 3 324 52 320 313 303 303 295 298 300 302 304 310 299 302 301 311 301 297 294 292 294 302 307 308 295 293 296 294
110 113 117 120 116 117 115 114 116 122 120 119 107 75 289 290 116 314 318 298 298 298 300 297 298 297 299 302 302 303 298 289 286 294 293 298 296 294 285 284 295 296 290
108 115 119 121 119 118 116 117 120 121 120 105 83 293 297 310 108 324 323 313 307 301 298 302 305 302 304 308 307 307 299 300 299 304 311 300 294 299 304 299 295 294 293
125 117 122 116 114 114 117 118 104 95 97 84 287 290 308 290 321 337 326 312 310 312 316 308 307 308 312 315 310 308 306 309 311 302 298 297 300 300 301 296 292 290 294
116 109 105 102 108 113 113 108 111 105 166 272 280 297 297 306 311 312 319 319 314 315 303 306 312 315 314 310 316 311 303 305 307 304 299 304 304 301 299 299 296 289 290
102 101 99 102 110 111 110 114 107 81 285 308 332 325 327 324 323 316 316 309 302 305 306 309 306 303 314 316 317 307 309 311 302 298 304 302 302 299 298 298 295 284 271
98 99 106 106 102 111 119 119 130 4 340 338 337 318 321 334 321 321 318 316 317 313 309 307 313 315 315 312 308 310 314 303 306 303 295 294 296 298 297 293 290 284 282
110 112 111 111 115 108 86 60 23 355 344 329 329 330 328 322 323 340 324 319 317 318 314 304 314 308 311 313 317 313 311 308 303 303 299 296 297 297 292 293 294 294 289
110 110 107 116 107 108 73 16 357 64 17 339 335 328 320 321 325 322 319 315 306 312 321 317 304 314 317 315 315 313 313 310 305 299 296 298 294 293 293 297 290 292 291
111 113 110 113 106 61 18 134 169 181 301 303 306 310 316 310 321 322 317 312 321 321 318 305 316 316 314 317 315 312 307 306 301 301 296 293 296 297 297 298 298 292 293
110 114 113 114 93 56 34 7 334 242 232 242 258 310 314 314 324 320 317 325 323 319 311 314 307 311 311 311 308 305 303 303 302 294 296 295 294 294 304 297 296 294 295
93 93 90 80 64 42 19 343 325 322 324 327 335 322 322 330 325 322 333 330 322 330 312 312 310 309 310 307 303 300 299 301 300 298 296 295 295 292 294 294 296 298 296
107 94 88 83 57 21 342 321 319 323 323 320 324 329 342 333 329 333 341 328 319 317 314 313 309 307 303 298 296 295 295 296 297 300 295 291 292 293 292 291 292 302 304
88 79 65 63 43 351 336 327 329 327 323 324 327 330 335 333 327 332 331 326 320 315 314 311 306 301 297 294 295 296 297 297 297 295 293 292 292 289 291 292 294 296 296
89 86 59 40 10 344 322 326 327 323 324 322 317 321 326 327 317 323 326 323 322 314 310 305 302 297 294 294 295 295 294 293 293 293 291 292 292 293 293 290 293 291 291
86 77 44 12 328 332 340 323 321 323 319 315 317 321 328 326 323 321 322 321 314 307 302 300 296 293 295 295 295 293 293 293 293 292 291 291 291 290 291 291 291 292 307
85 80 13 346 336 315 317 325 319 319 317 316 318 320 326 326 321 321 319 315 309 304 301 295 292 294 295 295 292 289 287 287 289 288 288 289 291 290 285 282 301 318 320
62 27 346 334 328 324 323 324 321 316 316 314 318 321 322 320 316 316 315 310 303 300 298 295 293 294 296 297 297 293 286 286 287 284 285 284 297 317 317 320 330 328 317
31 352 337 337 330 324 322 321 318 316 316 317 318 318 317 319 314 311 309 309 304 301 302 304 299 297 298 302 298 297 298 307 311 316 318 311 312 317 319 323 338 330 336
13 348 334 327 322 323 321 319 317 317 316 313 311 312 315 312 307 305 306 302 304 306 304 301 303 304 303 303 300 306 315 319 326 340 334 326 321 323 327 328 330 330 336